Patuxent River, MD

3:38 AM EDT on September 25, 2017 (GMT -0400)
Patuxent River Naval Air Station

Weather History for KNHK - February, 2013

Change the Weather History Date:

Saturday, February 9, 2013

  Actual Average Record
Temperature  
Mean Temperature 38 °F -  
Max Temperature 42 °F 38 °F 52 °F (2015)
Min Temperature 33 °F 23 °F 19 °F (2014)
Degree Days  
Heating Degree Days 28    
Moisture  
Dew Point 18 °F    
Average Humidity 48    
Maximum Humidity 56    
Minimum Humidity 38    
Precipitation  
Precipitation 0.00 in - - ()
Sea Level Pressure  
Sea Level Pressure 30.17 in    
Wind  
Wind Speed 22 mph (NW)    
Max Wind Speed 31 mph    
Max Gust Speed 45 mph    
Visibility 10 miles    
Events      
Averages and records for this station are not official NWS values.
T = Trace of Precipitation, MM = Missing Value Source: NWS Daily Summary

Daily Weather History Graph

Daily Weather History Graph

Search for Another Location

Airport or City:

Trip Planner

Search our weather history database for the weather conditions in past years. The results will help you decide how hot, cold, wet, or windy it might be!

Date:

Astronomy

Feb. 09, 2013 Rise Set
Actual Time 7:02 AM EST 5:37 PM EST
Civil Twilight 6:35 AM EST 6:05 PM EST
Nautical Twilight 6:04 AM EST 6:36 PM EST
Astronomical Twilight 5:33 AM EST 7:07 PM EST
Moon 6:12 AM EST (2/9) 5:17 PM EST (2/9)
Length of Visible Light 11h 29m
Length of Day
10h 35m
Waning Crescent, 0% of the Moon is Illuminated
Feb 9
Waning Crescent
Feb 10
New
Feb 17
First Quarter
Feb 25
Full
Mar 4
Last Quarter

Hourly Weather History & Observations

Time (EST) Temp. Windchill Dew Point Humidity Pressure Visibility Wind Dir Wind Speed Gust Speed Precip Events Conditions
12:52 AM 37.0 °F 24.9 °F 21.0 °F 52% 29.90 in 10.0 mi WNW 27.6 mph 40.3 mph N/A   Mostly Cloudy
1:52 AM 37.0 °F 25.9 °F 19.9 °F 50% 29.91 in 10.0 mi WNW 23.0 mph 34.5 mph N/A   Mostly Cloudy
2:52 AM 36.0 °F 23.9 °F 21.0 °F 55% 29.94 in 10.0 mi WNW 25.3 mph 39.1 mph N/A   Mostly Cloudy
3:52 AM 36.0 °F 24.4 °F 21.0 °F 55% 29.98 in 10.0 mi NW 23.0 mph 36.8 mph N/A   Overcast
4:52 AM 35.1 °F 21.6 °F 19.0 °F 52% 30.00 in 10.0 mi NW 31.1 mph 44.9 mph N/A   Partly Cloudy
5:52 AM 34.0 °F 21.5 °F 19.0 °F 54% 30.04 in 10.0 mi WNW 24.2 mph 38.0 mph N/A   Clear
6:02 AM 33.8 °F 20.5 °F 19.4 °F 56% 30.05 in 10.0 mi NW 27.6 mph 38.0 mph N/A   Partly Cloudy
6:52 AM 33.1 °F 18.9 °F 17.1 °F 52% 30.08 in 10.0 mi NW 31.1 mph 43.7 mph N/A   Scattered Clouds
7:52 AM 33.1 °F 21.9 °F 17.1 °F 52% 30.13 in 10.0 mi NW 18.4 mph 25.3 mph N/A   Partly Cloudy
8:52 AM 34.0 °F 21.5 °F 17.1 °F 50% 30.15 in 10.0 mi NW 24.2 mph 32.2 mph N/A   Partly Cloudy
9:52 AM 35.1 °F 23.0 °F 17.1 °F 48% 30.17 in 10.0 mi WNW 24.2 mph 32.2 mph N/A   Partly Cloudy
10:52 AM 37.0 °F 26.7 °F 19.0 °F 48% 30.20 in 10.0 mi WNW 19.6 mph 33.4 mph N/A   Partly Cloudy
11:52 AM 37.9 °F 27.9 °F 19.0 °F 47% 30.21 in 10.0 mi WNW 19.6 mph 28.8 mph N/A   Partly Cloudy
12:52 PM 39.0 °F 29.0 °F 19.0 °F 45% 30.21 in 10.0 mi NW 20.7 mph 26.5 mph N/A   Partly Cloudy
1:52 PM 39.9 °F 30.8 °F 19.0 °F 43% 30.22 in 10.0 mi WNW 18.4 mph 27.6 mph N/A   Partly Cloudy
2:52 PM 41.0 °F 32.5 °F 19.0 °F 41% 30.23 in 10.0 mi NW 17.3 mph - N/A   Clear
3:52 PM 42.1 °F 34.2 °F 18.0 °F 38% 30.25 in 10.0 mi NW 16.1 mph - N/A   Clear
4:52 PM 41.0 °F 33.5 °F 17.1 °F 38% 30.27 in 10.0 mi WNW 13.8 mph - N/A   Clear
5:52 PM 39.0 °F 32.3 °F 18.0 °F 43% 30.29 in 10.0 mi WNW 10.4 mph - N/A   Clear
6:52 PM 37.0 °F 30.4 °F 19.0 °F 48% 30.32 in 10.0 mi WNW 9.2 mph - N/A   Clear
7:52 PM 37.0 °F 28.9 °F 19.0 °F 48% 30.34 in 10.0 mi NW 12.7 mph - N/A   Clear
8:52 PM 36.0 °F 28.5 °F 16.0 °F 44% 30.34 in 10.0 mi NW 10.4 mph - N/A   Clear
9:52 PM 34.0 °F 28.0 °F 16.0 °F 48% 30.36 in 10.0 mi NW 6.9 mph - N/A   Clear
10:52 PM 34.0 °F 27.2 °F 16.0 °F 48% 30.37 in 10.0 mi NW 8.1 mph - N/A   Clear
11:52 PM 33.1 °F 26.1 °F 15.1 °F 48% 30.39 in 10.0 mi NW 8.1 mph - N/A   Clear